Theta_e
322 326 326 325 326 327 327 325 320 318 319 314 314 316 316 319 318 317 316 315 316 316 315 314 313 316 319 318 320 320 319 322 323 321 321 320 312 310 315 320 323 324 325 325 326 326 326 326 326 326 326 326 327 328 330 331 332 333 333 334 335 335 336 336 336 336 337 337 337 338 338 337 336 336 337 337 338 338 337 338 338 338 339 339 339 339 339 339 340 340 341 341 341 341 340 340 340
322 325 326 325 325 329 327 322 320 316 315 312 314 317 316 319 317 317 317 316 318 317 315 314 313 315 316 315 318 318 318 318 318 319 318 314 311 311 314 319 321 322 323 323 324 324 324 324 324 324 324 324 325 326 327 328 329 331 331 332 332 332 332 332 333 333 334 334 335 335 334 334 335 335 334 335 336 336 336 337 338 338 338 339 338 338 339 339 339 339 339 340 340 341 340 340 339
323 325 325 326 325 327 326 321 318 314 312 311 313 318 317 318 319 318 317 317 318 315 315 314 314 315 314 315 316 317 319 316 315 316 315 313 313 311 313 317 318 320 321 321 322 321 322 322 322 322 321 322 322 323 324 325 326 327 328 329 330 330 330 330 331 331 331 332 333 332 331 332 334 334 332 333 333 333 335 335 336 336 337 338 338 338 338 338 338 338 338 338 339 339 339 338 338
324 326 326 328 327 325 327 322 320 315 311 311 312 317 317 318 319 317 316 317 316 314 314 314 314 313 313 317 316 316 318 317 316 315 315 314 313 310 311 315 316 318 319 319 320 319 320 320 319 319 318 318 318 319 319 320 321 322 324 325 327 327 328 328 329 329 329 330 330 330 329 330 330 331 331 331 331 331 332 333 334 334 335 336 336 337 338 338 338 338 337 337 338 338 338 337 337
322 324 323 327 329 324 324 322 320 315 312 313 313 317 319 318 319 316 315 316 314 313 313 314 316 312 311 314 314 317 318 316 316 314 314 313 310 309 310 313 314 316 317 317 317 317 316 316 315 314 313 312 312 313 313 314 315 316 318 319 321 322 324 325 325 326 326 327 327 327 326 327 327 327 328 329 329 329 330 331 332 332 333 333 334 335 336 336 336 337 336 336 336 337 337 336 336
320 321 320 324 323 319 319 317 316 315 316 318 316 318 318 317 317 316 314 314 312 311 311 312 315 313 313 312 311 315 315 314 316 313 313 311 307 307 309 310 312 313 314 314 314 314 312 310 309 308 307 306 306 306 307 308 308 309 310 311 313 314 316 318 320 321 322 322 322 322 323 323 324 324 325 325 326 327 327 328 329 331 331 331 332 333 333 334 335 335 335 335 335 335 335 335 334
322 322 320 321 318 317 319 316 314 316 317 317 317 318 317 316 316 315 314 314 312 311 310 311 312 314 315 312 311 312 309 311 314 312 310 309 306 306 306 307 308 309 310 310 310 308 305 304 303 303 303 303 302 302 303 303 303 303 304 304 305 306 307 309 311 312 314 315 316 316 317 318 319 320 321 321 322 323 324 325 326 327 329 330 330 331 331 332 332 333 334 334 335 334 334 333 333
322 323 321 322 320 319 319 317 317 318 316 314 315 315 316 316 315 316 315 315 314 312 311 311 311 314 315 311 314 311 307 309 310 309 307 306 304 304 303 303 303 303 304 304 304 302 301 300 300 301 301 301 301 301 301 301 301 300 300 301 301 301 301 302 303 304 305 306 307 309 310 311 313 314 315 316 317 318 319 320 321 323 324 326 327 328 328 329 330 330 331 332 333 333 333 333 332
319 320 320 322 321 319 317 317 318 317 316 314 313 313 315 314 315 316 315 315 314 313 312 311 311 314 314 311 314 311 308 309 307 306 304 303 303 302 302 301 300 300 301 300 299 299 298 299 299 298 298 299 299 299 299 298 299 298 298 298 298 299 298 299 299 299 300 300 301 302 303 304 305 307 308 309 310 312 313 315 316 318 319 321 322 323 324 325 326 326 327 328 330 331 331 332 331
318 319 321 322 319 316 315 316 317 317 317 315 314 313 313 313 314 316 316 316 314 313 312 310 310 312 313 313 313 310 310 308 305 304 302 302 302 301 301 300 300 299 299 298 297 297 297 298 297 297 297 298 297 297 298 297 297 297 298 298 298 297 297 298 297 298 298 298 298 298 299 299 300 301 302 303 304 306 308 309 311 313 314 315 315 317 318 320 321 322 323 323 325 326 328 330 331
320 319 319 321 316 314 313 315 318 318 316 314 313 312 312 312 313 315 315 315 313 313 311 309 311 312 311 313 313 308 308 307 305 304 301 301 301 300 300 299 299 298 298 297 297 297 297 297 297 297 297 297 297 297 297 297 297 297 297 297 297 297 297 297 297 297 297 297 297 297 297 297 298 298 299 299 300 301 303 305 306 308 309 310 310 311 312 313 315 316 318 319 320 321 323 326 328
321 321 320 319 317 316 316 317 318 319 316 314 314 312 311 311 312 314 314 314 313 313 311 310 312 312 312 314 312 307 306 307 305 303 301 301 300 300 299 299 299 298 297 297 296 296 296 296 296 296 297 297 297 297 297 297 297 297 297 297 297 297 296 296 296 296 296 296 296 297 297 297 297 297 297 297 298 298 299 300 301 303 304 305 306 307 307 308 309 311 312 314 316 318 320 321 323
320 322 322 319 318 318 318 318 318 318 317 316 315 311 310 311 312 314 314 314 313 313 312 311 311 311 313 313 309 305 306 307 304 302 301 301 300 300 299 299 298 297 297 297 296 296 296 296 296 296 296 296 296 297 297 296 296 296 296 296 296 296 296 296 296 296 296 296 296 296 296 296 296 296 296 296 297 297 297 298 298 299 299 300 301 302 302 303 304 305 306 308 310 313 315 317 319
319 320 321 319 317 318 318 317 317 317 317 316 313 308 309 311 311 312 313 313 314 312 310 309 309 311 313 313 309 306 307 307 303 301 300 300 300 299 299 298 298 297 297 296 296 296 296 296 296 296 296 296 296 296 296 296 296 296 296 296 296 296 296 296 296 296 296 296 296 295 296 296 296 296 296 296 296 296 296 296 297 297 297 297 297 298 298 299 299 300 301 302 303 305 308 311 313
318 318 320 320 317 317 317 317 317 316 316 316 311 308 309 309 308 310 311 313 313 309 307 308 309 312 313 313 313 309 307 306 301 299 299 299 299 299 298 297 297 296 296 296 296 296 296 296 296 296 296 296 296 296 296 296 296 296 296 296 296 296 296 296 296 296 296 296 296 296 295 296 295 296 296 296 295 296 296 296 296 296 296 296 296 297 297 297 297 297 298 298 298 300 301 303 306
316 318 320 319 316 317 317 317 316 316 317 315 309 307 310 308 306 309 308 308 310 306 306 309 308 309 310 311 309 307 307 304 300 298 298 298 298 298 297 297 297 296 295 295 295 296 296 296 295 295 296 295 295 295 296 296 295 295 295 295 296 296 296 296 296 296 295 296 295 296 295 295 296 295 295 295 295 296 296 296 296 296 296 296 296 296 296 296 296 296 297 297 297 297 298 298 299
316 319 319 317 316 317 317 317 316 316 316 314 308 307 312 310 306 306 303 303 309 307 306 309 307 305 306 306 302 303 305 302 300 298 297 298 298 298 298 297 297 296 295 295 295 295 295 295 295 295 295 295 295 295 295 295 295 295 295 295 295 295 295 295 295 295 295 295 295 295 295 295 295 295 296 295 296 295 296 295 295 295 295 295 295 295 295 295 295 296 296 296 296 296 297 297 297
317 320 318 315 317 318 317 318 317 316 316 314 310 309 312 313 308 305 304 306 307 306 306 307 307 305 304 302 299 301 303 301 299 299 299 299 299 299 298 298 298 297 296 295 295 295 295 295 295 295 295 295 295 295 295 295 295 294 295 295 295 295 295 295 295 295 295 295 295 295 295 295 295 295 295 295 295 295 295 295 295 295 295 295 295 295 295 295 295 295 295 295 296 296 296 296 297
318 319 317 316 319 318 315 316 315 314 315 313 311 310 310 313 311 306 308 311 307 307 309 307 307 307 304 300 300 301 301 301 300 299 300 300 300 300 299 299 299 298 297 296 295 295 295 294 294 294 294 294 294 294 294 294 294 294 294 294 294 294 295 295 295 295 295 295 295 295 295 295 295 295 295 295 295 295 295 295 295 295 295 295 295 295 295 295 295 295 295 295 295 295 295 295 296
316 317 317 318 319 317 313 313 313 313 312 312 311 308 308 310 310 307 310 312 309 310 311 309 308 309 307 302 301 301 301 301 300 300 300 300 301 300 300 299 299 298 298 297 295 294 294 294 294 294 294 294 294 294 294 294 294 294 294 294 294 294 294 294 295 295 295 295 295 295 294 294 294 294 294 294 294 294 294 294 294 294 294 294 294 294 294 294 294 294 294 295 294 295 295 295 295
315 315 318 317 315 315 314 312 312 310 309 312 310 308 308 309 307 308 310 312 311 312 312 312 311 311 309 303 301 302 302 302 301 301 301 301 301 300 300 299 298 298 297 296 295 294 294 294 294 294 294 294 294 294 294 294 294 294 294 294 294 294 294 294 294 294 294 294 294 294 294 294 294 293 293 293 293 293 293 293 293 293 293 293 294 294 294 294 294 294 294 294 294 295 294 295 295
315 314 314 313 312 314 313 310 310 308 307 309 309 309 310 308 307 308 309 312 315 314 312 312 312 313 310 303 302 302 302 302 301 301 301 301 301 300 300 299 298 298 296 296 295 294 294 294 294 294 294 294 294 294 294 294 294 294 294 294 294 294 294 294 294 294 294 294 294 294 293 293 293 293 293 293 293 293 293 293 293 293 293 293 293 293 293 293 293 294 294 294 294 294 294 294 295
315 315 311 311 311 312 311 309 308 307 308 309 309 310 308 308 309 309 308 311 313 311 308 308 309 310 309 304 303 302 302 302 302 302 301 301 301 300 299 298 297 296 296 296 295 295 294 294 294 294 294 293 294 294 294 294 293 293 293 293 294 294 294 294 294 294 294 294 293 293 293 293 293 293 293 293 293 293 292 292 292 292 292 292 293 293 293 293 293 293 293 294 294 294 294 294 295
313 315 312 311 309 311 310 307 307 306 308 309 307 308 308 309 311 308 307 309 311 309 304 304 304 306 306 304 302 302 303 303 302 301 301 301 301 300 298 298 297 296 296 296 295 294 294 294 294 294 293 293 293 293 293 293 293 293 293 293 293 293 294 293 293 293 293 293 293 293 292 293 292 292 292 292 292 292 292 292 292 292 292 292 292 292 292 292 292 292 292 293 293 294 294 295 296
312 314 312 310 308 310 309 306 306 306 307 306 305 308 310 310 308 306 307 309 310 309 305 303 303 304 304 304 303 303 303 303 303 301 301 301 300 299 298 297 296 296 296 296 295 294 294 294 294 293 293 293 293 293 293 293 293 293 293 293 293 293 293 293 293 293 292 292 292 292 292 292 292 292 292 292 292 291 291 291 291 291 291 291 291 291 291 291 291 292 292 292 292 293 294 296 296
312 312 311 311 311 310 308 307 307 306 306 306 306 311 310 306 306 308 310 309 309 309 306 303 303 303 303 304 303 302 302 303 303 301 301 300 299 299 297 297 296 296 296 295 294 294 294 294 293 293 293 293 293 293 293 293 293 293 293 293 293 293 293 293 292 292 292 292 292 292 292 292 292 292 291 291 291 291 291 291 291 291 291 291 290 290 290 290 291 291 291 292 292 292 293 295 295
310 310 310 310 310 309 307 308 307 305 306 306 308 312 310 305 306 312 312 305 304 307 306 303 302 303 303 303 303 303 303 303 303 301 300 299 298 298 297 296 296 296 296 295 294 294 294 294 293 293 293 293 293 293 292 293 293 292 292 292 292 292 292 292 292 292 292 292 292 292 292 292 292 291 291 291 291 291 290 290 290 290 290 290 290 290 290 290 290 290 291 291 291 292 293 294 295
308 308 310 310 309 309 307 307 307 306 308 306 307 310 308 306 306 312 310 302 302 306 305 302 302 304 304 303 302 302 303 303 302 301 300 299 298 298 297 296 296 296 295 295 294 294 294 293 293 293 293 293 292 292 292 292 292 292 292 292 292 292 292 292 292 292 292 292 292 291 291 291 291 291 291 291 290 290 290 290 289 289 289 289 289 289 289 290 290 290 290 290 291 291 292 293 295
306 307 311 312 310 312 309 307 306 307 309 305 306 310 309 308 309 312 310 303 302 304 305 303 302 303 303 303 301 301 302 302 301 300 300 299 298 297 297 296 296 296 295 295 294 294 294 293 293 293 292 292 292 292 292 292 292 292 292 292 292 292 292 292 291 292 292 292 291 291 291 291 291 290 291 291 290 290 290 289 289 289 289 289 289 289 289 289 289 290 290 290 291 292 292 293 294
307 308 310 313 313 314 310 306 305 307 308 305 307 311 312 312 312 312 309 304 303 304 305 305 303 302 302 302 301 300 301 301 300 299 300 299 298 297 297 296 295 295 295 294 294 294 293 293 293 293 292 292 292 292 292 291 292 291 291 291 292 292 292 291 291 291 291 291 291 291 291 290 290 290 290 290 290 290 289 289 289 288 288 288 288 288 289 289 289 289 289 290 291 292 293 293 294
309 309 310 313 313 313 310 306 307 309 307 304 308 312 314 315 314 313 309 304 304 306 307 306 305 303 301 301 300 300 300 300 300 299 299 299 297 296 297 296 295 295 295 294 294 293 293 293 293 292 291 291 291 291 291 291 291 291 291 291 291 291 291 291 291 291 291 291 290 290 290 290 290 290 290 290 290 290 289 289 288 288 288 288 288 288 288 288 288 289 289 290 291 291 292 292 293
310 309 312 315 312 313 313 307 307 311 307 304 309 312 314 315 315 313 306 303 304 305 307 307 306 304 302 301 300 299 300 299 299 298 297 297 297 296 296 296 294 294 294 294 294 293 293 293 293 292 291 291 291 291 291 291 291 290 291 291 291 291 291 291 290 290 290 290 290 290 290 289 289 289 289 289 289 289 289 288 288 288 288 287 287 287 288 288 288 288 288 289 290 291 291 292 292
313 311 312 315 313 313 313 308 304 307 308 306 309 312 314 314 314 310 302 302 304 304 307 307 306 305 303 301 300 299 299 299 298 297 297 296 296 295 295 295 294 294 294 294 293 293 293 293 292 291 290 291 291 291 290 290 290 290 290 290 290 290 290 290 290 290 289 289 289 289 289 289 289 289 288 288 288 288 288 288 288 287 287 287 287 287 287 287 287 288 289 289 290 290 291 291 292
314 312 312 314 314 311 311 310 305 303 307 309 309 310 312 312 313 311 304 303 305 305 307 308 308 306 304 303 301 299 299 299 298 298 296 296 295 294 294 294 294 293 293 293 293 293 293 293 292 290 290 291 290 290 290 290 290 290 290 290 290 290 289 289 289 289 289 289 289 288 289 288 288 288 288 287 287 287 287 287 287 287 286 286 286 286 287 287 287 287 288 289 289 290 290 291 291
314 313 312 312 312 310 311 311 307 304 306 308 309 309 310 311 311 312 309 306 306 307 308 308 308 307 306 304 302 300 299 299 299 299 297 295 295 293 293 293 293 293 293 293 293 293 292 292 291 290 290 290 290 290 290 290 289 289 290 289 289 289 289 289 289 289 288 288 289 288 288 288 287 287 287 286 286 287 287 287 286 286 286 286 286 286 287 287 287 287 288 288 289 289 289 290 290
314 314 313 312 312 311 312 311 305 304 307 308 309 309 310 311 310 310 310 308 307 307 308 308 309 308 307 305 303 301 300 300 300 300 298 295 294 293 292 292 292 292 292 292 293 292 292 292 291 290 290 290 289 289 289 289 289 289 289 289 289 289 288 288 288 288 288 288 288 288 288 287 287 286 286 286 286 286 286 286 286 285 285 285 286 286 286 286 286 286 287 288 288 288 289 289 290
313 315 315 314 314 312 313 310 302 302 306 308 308 309 309 309 309 309 309 309 308 308 308 308 308 308 307 306 305 302 300 301 301 300 298 296 294 293 292 291 292 292 292 292 292 292 292 292 291 290 290 290 289 289 289 289 289 290 289 289 290 289 288 288 288 288 288 288 288 288 287 287 286 286 286 286 286 286 286 285 285 285 285 285 286 286 285 285 285 286 286 287 287 288 288 289 289
311 314 314 314 314 313 312 308 302 302 305 308 308 308 308 308 309 309 309 309 309 309 309 309 309 309 308 308 306 304 302 301 301 299 298 296 294 292 291 291 291 291 291 292 292 292 292 291 290 290 290 289 289 289 289 289 289 290 290 290 289 289 288 288 288 288 288 287 288 287 287 286 286 286 286 286 286 285 285 285 285 285 285 285 285 285 285 285 285 285 286 286 287 287 288 288 289
311 312 313 313 313 313 311 307 303 302 305 308 309 307 308 309 309 309 309 309 309 310 310 310 311 310 310 309 308 305 303 301 300 298 297 295 294 292 291 290 290 291 291 291 291 291 291 291 290 290 290 289 289 289 289 289 289 289 289 289 288 288 288 288 288 287 287 287 287 287 286 286 286 286 286 286 285 285 284 284 284 284 284 285 285 285 285 285 285 285 286 286 286 287 287 288 288
311 312 312 313 314 313 311 308 303 303 305 307 307 307 308 309 308 309 309 309 309 309 309 310 310 311 311 311 309 306 304 302 300 298 296 295 294 292 291 290 290 291 291 291 291 291 291 290 290 290 289 289 289 289 289 289 289 288 288 288 288 288 287 287 287 287 287 287 286 286 286 286 286 286 286 285 285 284 284 283 283 284 284 284 284 285 285 285 285 285 285 285 285 286 287 288 288
312 312 313 314 315 313 311 309 305 306 306 304 306 309 310 312 313 312 310 307 307 306 306 307 308 309 310 309 308 306 304 304 301 299 296 295 294 293 291 290 290 290 290 290 290 291 291 290 290 290 289 289 289 289 289 288 288 288 288 287 287 287 287 287 287 287 287 286 286 286 286 286 286 286 285 285 284 284 284 283 283 283 283 283 284 284 284 284 284 284 284 285 285 285 286 287 287
313 313 313 313 313 313 312 309 307 310 311 306 307 311 312 316 316 314 312 308 308 308 307 309 309 309 309 307 306 305 304 304 302 300 297 295 294 293 291 290 290 290 290 290 290 291 291 291 290 290 289 289 289 289 289 288 288 288 287 288 288 288 289 288 288 288 287 286 286 286 285 286 286 286 285 285 284 284 284 283 282 282 283 283 283 283 284 284 284 284 284 284 284 285 285 286 286
313 312 312 311 310 312 311 309 309 312 313 308 308 312 313 314 313 313 314 312 311 312 311 312 312 312 312 309 306 305 304 303 302 301 298 296 295 293 292 290 290 290 290 290 290 291 291 291 290 290 289 289 289 289 288 288 288 287 287 288 288 289 289 289 288 287 286 286 286 286 286 286 285 285 285 285 284 284 284 283 282 281 282 282 282 283 283 283 283 284 283 283 284 284 284 285 286
314 309 309 310 308 309 309 309 310 311 311 308 309 311 312 313 311 312 313 312 311 312 312 313 313 313 313 311 307 305 305 303 302 301 299 297 295 294 293 291 290 290 290 290 290 290 291 290 290 290 289 289 289 289 288 288 288 287 287 287 287 287 287 287 286 285 285 286 285 285 286 286 285 285 285 285 284 284 283 282 281 281 281 282 282 282 283 283 283 283 283 283 283 283 284 284 285
313 304 304 306 306 308 308 309 310 308 308 310 311 310 312 314 312 310 310 311 312 312 312 312 314 315 314 311 307 305 305 304 302 301 299 297 296 294 293 291 290 289 289 289 290 290 290 290 290 290 289 289 289 288 288 288 287 287 287 286 286 286 286 286 285 285 285 285 285 285 285 285 285 285 284 284 283 283 282 281 280 281 281 281 282 282 282 282 282 282 282 283 283 283 283 284 284
307 302 304 305 304 306 306 308 309 307 309 312 312 310 311 313 313 309 308 310 311 312 313 313 314 315 315 311 308 306 304 303 302 300 299 298 297 295 293 291 290 289 289 289 289 290 290 290 290 289 289 289 288 288 288 287 287 286 286 286 286 286 285 285 284 284 284 284 284 284 284 284 284 284 284 283 283 282 281 280 280 280 281 281 281 281 281 281 282 282 282 282 282 282 283 283 283
303 305 308 308 306 305 304 306 308 309 313 314 312 311 311 312 314 312 310 311 311 312 313 313 314 315 313 310 307 305 303 301 300 299 298 298 296 294 292 291 290 289 288 289 289 289 289 289 289 289 289 288 288 288 287 287 286 286 286 286 285 285 285 284 283 283 283 283 283 284 284 283 283 283 283 283 282 281 280 280 280 280 281 281 281 281 281 281 281 282 282 282 282 282 282 282 283
304 308 309 311 310 307 307 307 307 311 315 312 310 311 311 312 313 312 311 310 310 312 312 312 314 314 316 313 307 304 302 300 299 297 297 296 295 293 292 291 290 288 288 288 288 289 289 289 289 288 288 288 288 287 287 286 286 286 285 285 285 284 284 283 283 283 283 283 283 283 282 282 282 282 282 282 281 280 280 280 280 280 280 280 280 280 280 280 281 281 281 281 281 281 282 282 282
306 308 310 314 315 312 312 312 310 313 314 309 306 309 311 311 311 311 310 310 309 310 311 313 314 314 318 317 307 302 300 298 297 296 295 295 293 293 292 291 290 288 288 288 288 288 288 288 288 288 287 287 287 287 286 286 286 286 285 285 285 284 283 283 282 282 282 282 282 281 281 281 281 281 281 281 280 280 279 279 279 279 280 280 279 280 280 280 280 280 280 281 281 281 281 282 282
306 310 312 314 315 315 315 314 311 312 314 308 303 306 310 310 310 311 310 310 311 310 310 312 312 313 316 312 303 300 297 296 296 295 295 294 293 292 292 291 289 288 288 288 288 288 288 288 288 288 287 286 286 286 286 286 285 285 285 285 284 283 282 282 282 282 282 281 281 280 280 280 280 280 280 280 280 279 279 279 279 279 279 279 279 279 279 279 280 280 280 280 281 281 281 281 281
307 310 312 314 314 314 313 312 310 312 313 309 304 307 311 310 310 312 311 310 311 311 312 312 310 309 309 304 299 298 296 296 295 294 294 294 293 292 291 290 289 289 288 288 288 288 287 287 287 287 287 286 286 286 286 285 285 285 284 284 283 282 282 282 282 282 281 281 280 280 280 280 279 279 279 279 279 279 278 278 278 278 278 278 278 278 279 279 279 279 280 280 280 280 280 280 280
307 307 310 313 313 312 311 312 311 311 312 311 307 309 311 310 310 310 310 311 310 309 310 311 309 308 307 304 301 299 297 296 295 294 294 293 293 292 291 290 289 289 288 288 288 287 287 287 287 287 287 286 286 286 286 285 285 284 284 283 282 282 282 282 281 281 281 280 280 280 280 279 279 278 278 278 278 278 277 277 277 277 278 278 278 278 278 279 279 279 279 280 280 280 280 280 280
308 307 310 311 310 311 312 313 311 308 310 313 311 311 311 311 311 309 309 311 309 308 309 308 309 309 308 308 305 301 300 298 296 294 294 293 293 292 291 290 290 289 288 288 288 287 287 287 287 287 286 286 285 285 285 285 284 284 283 282 282 281 282 282 281 281 280 280 279 279 279 279 278 277 277 277 277 277 277 277 277 277 277 277 278 278 278 278 278 278 279 279 279 279 279 280 280
307 308 311 309 308 309 310 311 311 310 312 314 313 312 311 312 312 310 308 309 308 308 309 308 308 307 308 309 307 303 302 300 297 295 294 293 292 292 291 290 289 289 289 288 288 287 287 287 287 287 286 285 285 285 285 284 283 282 281 281 281 281 282 281 281 280 280 279 279 278 278 278 277 277 276 276 276 276 276 276 276 276 276 276 277 277 277 277 277 278 278 278 278 278 279 279 279
305 306 307 308 310 311 309 310 311 312 313 313 313 313 312 312 312 311 310 310 309 309 309 309 308 306 306 307 306 303 302 300 298 295 293 293 292 292 291 290 289 289 288 288 287 287 286 286 286 286 286 285 285 285 284 283 282 281 281 281 281 281 281 281 280 280 279 279 279 278 277 277 276 276 275 276 276 275 275 275 275 275 275 276 276 276 276 276 277 277 277 277 278 278 278 278 278
302 303 304 305 308 311 310 310 310 312 312 313 314 314 313 313 312 312 311 311 311 310 309 309 309 308 308 306 304 303 302 300 298 296 294 292 292 292 291 290 290 289 288 288 287 286 286 286 286 286 285 285 285 284 283 282 281 281 281 281 281 281 281 280 280 280 280 279 278 277 276 276 275 275 275 275 275 274 274 274 274 275 275 275 275 275 276 276 276 276 276 276 277 277 277 278 278
304 305 306 305 305 307 308 308 308 310 311 312 313 314 313 312 312 311 311 311 311 311 311 312 311 310 309 307 305 303 302 300 299 296 294 293 292 292 291 290 289 289 288 287 286 286 286 286 286 285 285 284 284 283 282 281 281 281 281 281 281 280 280 280 280 280 279 278 277 277 276 275 275 275 274 274 274 274 274 274 274 274 274 275 275 275 275 275 275 275 275 276 276 276 276 276 276
308 307 308 307 308 308 308 310 309 308 311 312 312 313 313 312 313 311 310 311 311 311 312 312 311 310 309 307 305 304 303 302 300 297 295 293 291 291 291 290 289 288 288 287 286 286 285 285 285 285 284 284 283 282 281 281 281 281 281 281 280 280 280 280 280 279 278 278 277 276 275 275 275 274 274 273 273 273 273 273 273 274 274 274 274 274 274 274 274 274 274 274 274 275 275 275 275
Wind_Speed
4 4 3 1 2 1 1 1 1 1 2 1 2 1 4 3 1 4 6 5 3 3 3 1 3 5 4 1 2 1 3 2 1 1 1 3 5 3 6 7 6 5 4 3 1 2 5 4 4 5 4 3 3 3 3 4 5 6 7 8 8 8 7 7 7 7 6 6 7 9 8 7 7 7 7 7 8 8 8 8 8 7 6 7 8 8 8 9 8 9 8 6 7 7 8 8 8
4 4 2 1 2 2 1 0 3 2 2 2 3 2 4 5 4 7 10 9 3 4 5 3 4 2 3 5 2 1 1 1 4 2 3 5 6 4 8 8 8 7 6 5 4 3 5 3 2 3 3 3 3 3 3 3 3 4 4 5 6 6 6 6 6 6 5 4 4 6 8 7 8 7 6 6 7 7 7 7 7 6 5 5 6 7 8 9 9 10 9 8 7 7 8 9 10
5 4 2 1 1 1 1 1 3 2 3 1 3 3 5 7 8 7 8 7 5 8 7 7 5 2 1 2 2 3 2 2 2 3 4 7 5 5 9 9 9 8 6 6 6 5 5 4 3 2 2 3 3 3 3 3 3 3 3 3 3 3 4 4 5 5 4 4 5 6 7 7 7 6 6 6 6 6 6 7 7 6 5 5 4 5 7 8 8 9 9 9 9 8 8 9 11
5 5 3 2 1 1 2 2 2 3 3 1 1 5 8 8 9 6 4 6 8 8 7 8 6 1 4 6 2 2 1 3 4 3 4 7 4 7 11 10 10 8 7 7 7 6 4 4 4 4 3 3 3 3 3 3 3 3 3 2 2 2 3 3 4 4 4 5 5 6 6 6 6 7 7 6 6 6 6 7 7 7 7 6 5 4 5 6 7 8 8 9 9 9 9 9 10
5 4 3 3 2 1 1 1 1 3 2 0 0 5 10 8 8 6 6 8 8 6 4 6 4 2 3 3 0 1 2 4 5 4 4 6 6 10 11 10 10 9 9 8 8 7 5 6 5 5 5 5 5 4 4 4 4 3 3 3 3 3 3 3 3 3 4 5 4 4 5 5 5 5 6 6 6 6 6 6 7 7 7 7 7 6 6 6 7 7 8 8 8 8 9 10 11
6 4 3 2 1 1 2 2 2 4 1 0 1 3 10 8 7 8 8 7 6 2 1 3 1 2 3 1 1 2 2 2 6 6 4 8 11 12 12 11 11 10 10 9 9 8 8 8 7 7 7 7 7 7 7 6 5 4 4 4 4 3 3 3 3 3 4 4 4 4 5 5 5 5 5 5 5 5 6 6 6 7 7 8 8 8 8 7 7 7 8 8 8 9 10 11 11
7 4 3 2 1 1 4 3 3 3 1 0 2 1 8 8 7 10 11 8 5 4 3 4 1 2 3 2 3 1 1 0 4 7 7 12 14 13 13 12 11 11 11 10 10 10 11 10 9 9 8 8 8 8 8 7 6 6 5 5 4 4 4 3 3 3 4 4 4 4 4 4 5 5 5 5 5 5 5 5 5 5 6 7 8 8 9 9 8 8 8 8 9 10 11 12 12
6 2 0 2 2 1 3 3 3 2 1 1 2 1 4 8 9 11 12 9 6 6 5 6 4 4 2 2 3 3 4 3 4 9 13 15 16 15 14 13 12 13 12 11 11 11 11 10 10 9 8 8 8 7 7 6 6 6 5 5 5 4 4 4 4 4 4 4 4 5 5 5 6 7 7 7 6 6 6 6 5 5 5 6 6 7 7 8 8 8 9 9 10 11 12 12 13
3 1 1 2 2 1 2 2 2 2 1 1 2 2 1 6 10 10 13 9 4 5 6 7 7 4 2 4 2 3 6 6 8 12 16 17 17 16 16 15 13 14 13 12 11 11 10 10 10 9 9 8 8 7 6 6 5 5 5 5 4 5 4 4 4 4 4 5 5 5 6 6 7 7 8 8 7 7 7 7 6 7 6 7 7 7 7 7 7 8 8 10 11 11 12 13 14
1 1 1 2 2 3 3 3 2 1 2 1 2 3 2 6 8 8 12 9 4 4 4 5 6 6 1 4 3 2 6 10 12 14 16 18 18 16 16 15 15 14 13 12 11 10 9 9 9 8 9 8 8 7 7 6 6 5 5 5 5 5 5 5 5 5 5 5 5 6 6 6 7 7 8 8 8 8 7 7 7 8 8 8 8 8 8 8 8 9 10 10 11 11 12 13 14
2 1 1 2 3 4 3 3 2 1 1 1 2 4 4 7 8 6 8 7 4 4 5 6 5 8 4 3 2 3 8 14 14 14 17 19 18 17 16 15 15 14 13 12 11 10 9 8 8 7 7 7 7 7 7 6 6 6 5 5 5 6 6 6 6 6 7 7 6 6 6 6 7 7 8 8 9 8 8 8 8 8 8 9 9 9 9 9 10 10 11 12 12 12 12 13 14
3 1 1 3 3 3 2 3 2 1 2 3 5 5 4 8 9 9 11 8 6 5 7 9 3 5 7 5 2 6 10 15 14 17 20 19 18 18 17 15 14 13 12 11 10 10 9 8 8 7 6 5 6 6 6 6 6 6 6 6 6 7 7 7 8 8 8 8 8 8 7 7 7 7 7 8 8 9 9 9 9 10 10 10 11 11 11 11 11 12 12 13 14 14 14 14 14
2 1 3 3 1 2 1 2 2 1 3 5 5 5 6 10 11 11 11 8 8 8 8 10 3 2 7 2 2 5 12 16 15 20 23 20 19 18 17 16 14 13 12 11 10 9 9 9 8 7 6 5 5 5 5 5 5 6 6 7 7 8 8 9 9 9 9 9 9 10 9 9 9 9 8 8 8 8 8 9 10 11 11 12 13 13 14 14 14 15 15 15 16 16 16 16 16
1 1 2 1 1 1 1 2 1 2 3 4 4 6 8 8 8 7 7 11 12 7 3 6 5 2 5 3 3 5 13 18 19 24 24 22 21 19 18 17 15 13 12 11 10 9 8 8 8 7 6 6 5 5 5 4 5 5 6 6 7 8 8 9 9 9 10 10 10 10 11 11 11 11 11 11 10 10 9 9 9 10 11 12 13 14 15 16 16 17 18 18 19 19 19 19 19
1 1 1 1 1 1 2 2 1 3 2 5 5 7 9 4 2 5 7 11 8 3 3 3 5 3 3 5 3 3 15 22 22 25 24 22 21 19 19 17 15 14 12 11 10 9 9 8 7 7 6 6 6 6 5 5 5 5 5 5 6 6 7 7 8 8 8 9 10 10 10 11 11 11 12 12 12 12 12 11 11 11 11 11 12 13 14 15 16 18 19 20 21 21 22 22 22
1 1 1 2 2 2 3 2 1 3 2 5 4 5 9 4 2 5 3 4 2 3 3 5 7 3 2 2 2 2 17 25 25 26 23 21 19 16 16 15 14 14 13 12 11 10 9 8 7 7 6 6 6 6 6 5 5 5 5 5 6 6 7 7 7 7 7 8 8 9 9 10 10 11 11 12 12 12 13 13 13 13 13 13 13 13 13 14 15 16 17 18 20 21 22 22 23
1 1 2 3 2 2 3 5 3 1 1 5 5 6 9 6 4 3 1 2 4 4 6 6 6 3 2 2 3 3 19 27 27 25 21 18 16 14 13 12 13 14 14 13 12 11 10 9 8 7 7 6 6 6 6 6 6 6 6 6 6 6 7 7 7 7 7 8 8 8 8 9 9 10 10 11 11 12 12 13 13 14 15 15 15 15 15 15 15 15 16 17 18 19 20 21 22
2 2 3 3 2 2 3 5 4 1 1 4 6 8 10 6 6 4 2 5 6 5 7 8 6 7 4 1 2 8 21 27 26 24 20 17 16 15 14 14 13 13 14 13 13 13 11 10 9 8 7 6 6 6 6 6 6 6 6 6 6 6 6 6 7 7 7 8 8 8 9 9 9 9 9 9 10 11 12 12 13 13 14 15 16 16 16 17 17 16 17 17 17 17 18 19 19
2 1 3 3 2 1 1 3 4 3 1 2 4 6 8 5 5 6 6 7 8 9 9 9 10 12 9 6 6 13 22 25 25 24 21 20 20 18 17 15 14 13 13 13 14 14 12 11 10 9 8 7 6 6 6 6 6 6 5 5 5 5 6 6 6 7 7 8 8 9 9 9 9 9 9 10 10 11 11 12 12 13 14 15 15 16 17 17 18 18 18 19 19 19 19 19 19
1 1 4 3 0 2 2 4 5 4 1 1 3 4 6 5 3 6 7 7 8 12 11 9 12 16 14 11 12 17 22 23 24 24 23 22 21 19 18 17 16 15 15 14 16 16 14 13 11 10 8 7 7 6 6 6 6 5 5 5 5 5 5 6 6 6 7 8 8 9 9 9 10 10 11 12 12 13 13 14 14 15 15 16 16 17 18 18 19 20 20 21 21 22 21 21 20
1 2 4 1 2 3 3 5 5 3 2 3 2 3 6 4 3 5 6 7 10 13 14 13 14 16 13 13 15 19 23 24 25 24 24 23 21 20 18 18 17 16 17 17 17 17 16 14 12 10 9 8 7 7 7 6 6 6 5 5 5 5 5 5 5 6 7 7 8 8 9 10 10 11 12 13 14 14 15 16 17 17 18 18 19 19 19 20 20 20 21 21 22 22 22 22 21
2 3 2 2 2 3 1 2 2 3 2 3 4 4 4 3 4 9 9 11 11 5 8 13 14 12 10 15 16 19 21 23 25 25 25 25 24 22 19 18 17 18 21 20 18 19 17 16 14 12 9 8 7 7 7 7 6 6 6 6 5 4 4 4 4 5 5 6 7 7 8 9 10 11 12 13 13 14 15 16 17 17 18 19 20 21 21 22 22 22 22 22 22 22 22 22 22
3 2 1 2 3 3 0 2 2 3 4 5 4 2 2 3 6 9 12 19 12 3 3 4 7 6 8 16 17 18 20 22 26 28 28 27 27 25 21 20 20 22 24 20 19 20 19 17 15 13 10 9 8 8 8 7 7 6 6 6 5 4 3 3 3 3 4 5 6 7 7 8 9 10 11 12 13 13 14 15 15 16 17 17 18 19 20 20 21 22 22 22 22 22 22 23 22
4 3 2 2 2 5 1 2 2 3 5 4 1 1 4 8 6 3 11 21 15 2 5 2 1 2 8 14 16 18 20 23 27 29 28 27 27 25 22 21 21 24 23 20 22 22 21 19 16 14 11 10 9 9 8 8 7 7 6 5 5 4 3 2 2 2 3 4 5 6 7 7 8 9 10 11 12 13 14 15 15 16 16 17 17 18 18 19 19 19 20 21 21 21 22 21 20
6 4 1 1 2 6 2 0 3 3 5 1 1 6 7 7 2 3 16 19 15 9 5 4 2 4 9 12 16 17 17 21 24 24 23 22 21 21 23 22 21 25 24 23 25 23 22 20 17 15 12 11 11 10 10 9 8 7 7 6 5 4 3 3 2 2 2 3 4 5 6 6 7 8 9 10 11 12 14 15 15 16 17 18 19 19 19 20 19 18 18 19 19 20 20 19 19
4 2 1 3 3 4 2 3 4 2 4 3 5 11 6 3 2 10 19 14 9 11 8 6 6 7 10 12 14 16 16 19 22 22 22 19 18 22 25 25 24 26 24 25 27 24 23 21 18 16 13 13 13 12 12 10 9 8 7 7 5 5 4 3 2 1 1 2 3 4 5 6 7 7 9 9 11 12 13 15 15 16 16 18 19 19 19 20 20 19 19 19 18 18 18 18 19
0 1 3 6 5 3 2 4 3 1 4 5 8 12 4 3 2 10 9 1 2 7 8 7 8 11 12 11 12 15 16 19 22 20 19 18 19 23 25 26 27 26 24 26 27 25 24 22 19 17 15 15 15 14 13 11 10 9 8 7 6 5 4 2 2 1 1 2 3 4 5 6 6 7 8 9 11 12 13 14 15 16 16 17 19 19 20 21 20 20 20 21 21 20 19 18 17
1 2 5 7 6 6 6 5 3 3 3 5 7 10 4 3 5 15 5 5 3 6 8 8 10 12 12 12 11 11 14 17 19 18 21 23 24 25 26 29 29 25 26 29 28 26 26 23 21 19 17 16 16 15 14 12 11 10 8 7 6 5 4 3 1 0 1 2 3 3 5 5 6 7 8 10 11 12 13 14 15 16 17 18 19 20 21 22 21 21 22 22 21 20 20 18 17
1 1 5 5 5 7 7 4 3 4 3 4 4 7 8 8 14 18 5 6 4 5 8 9 10 11 10 11 10 10 12 14 16 19 24 25 24 25 26 30 31 27 27 30 29 29 27 24 23 20 18 17 17 16 14 13 11 9 8 7 7 6 4 3 2 1 1 2 3 4 5 6 6 8 9 10 11 12 13 14 15 16 17 19 20 21 22 22 21 21 22 21 19 18 18 17 17
1 1 3 4 6 5 4 3 2 5 2 3 3 8 8 12 19 15 4 6 5 5 9 9 9 9 8 10 9 10 12 14 18 22 24 22 22 25 25 29 34 32 30 30 31 31 28 26 24 21 19 18 17 16 14 13 11 9 8 8 7 6 5 4 3 3 3 3 4 5 6 6 7 9 10 11 11 12 13 14 15 16 17 19 20 21 22 22 21 22 22 20 18 17 16 16 16
1 1 1 2 4 2 4 3 4 6 1 2 4 7 10 8 13 10 5 6 6 8 11 10 9 8 8 9 9 11 12 15 19 21 22 21 22 25 25 28 35 35 34 34 33 31 29 27 24 21 19 18 17 15 14 12 11 10 9 9 8 7 6 5 4 4 5 5 5 6 7 7 8 10 11 11 12 12 13 14 15 15 17 19 20 20 22 21 20 21 22 19 18 16 16 17 18
0 2 3 2 3 2 2 5 5 4 2 3 5 6 12 12 6 5 4 5 7 10 11 10 11 10 9 10 10 11 11 14 18 19 21 21 22 25 26 30 37 37 35 36 34 31 29 26 23 20 18 17 16 15 14 13 12 11 10 10 9 8 7 6 6 6 6 6 6 6 8 9 10 11 11 11 12 13 14 14 14 16 18 19 19 20 20 19 19 20 19 16 16 16 16 18 18
2 3 5 3 4 4 1 4 3 2 2 6 9 6 9 10 3 5 4 5 7 9 12 13 14 12 10 9 9 10 10 12 15 19 22 22 23 27 27 31 38 37 35 35 34 32 29 26 24 20 19 18 17 16 15 14 13 12 11 10 9 9 8 7 7 8 7 7 6 7 9 10 10 10 11 11 12 13 14 15 15 17 18 18 18 19 18 18 18 17 16 14 14 15 16 17 18
2 2 4 4 5 5 4 2 3 2 3 7 10 10 14 15 10 4 6 8 7 10 14 17 16 12 11 9 9 10 10 12 14 19 26 25 24 27 27 29 37 37 34 34 34 32 30 28 25 22 21 19 18 17 16 15 14 13 12 11 9 8 8 7 8 8 7 8 8 9 10 10 10 10 11 12 12 13 15 16 17 18 18 17 17 17 18 18 18 16 16 16 14 15 16 17 18
4 4 5 5 5 7 7 4 2 4 3 7 9 11 17 20 19 16 10 9 10 15 16 19 18 14 11 10 10 11 11 13 14 19 26 25 23 26 26 28 35 37 35 35 34 32 30 28 26 23 22 20 19 18 17 16 14 12 11 10 9 8 7 7 8 8 8 9 9 10 10 10 11 11 12 12 13 14 15 16 17 18 18 16 16 17 17 16 17 17 16 16 15 15 16 18 19
4 4 5 7 6 9 9 2 3 3 4 9 13 14 17 20 19 21 16 8 10 16 17 18 17 12 10 10 11 10 13 14 14 17 21 22 23 26 27 28 34 36 36 35 34 33 31 29 27 24 24 22 21 19 17 16 14 12 11 9 8 7 8 8 8 9 9 10 10 11 11 11 11 12 12 13 14 15 16 16 17 18 17 15 14 15 16 16 17 18 15 15 16 15 15 16 16
3 2 4 8 8 10 9 2 4 2 4 11 15 15 18 20 19 20 18 9 12 18 18 18 16 11 11 12 11 11 13 12 10 13 16 20 23 27 28 29 33 35 36 36 36 35 33 31 29 27 26 24 22 21 19 18 15 13 11 9 8 8 8 8 8 9 10 10 11 11 11 11 12 12 13 14 15 16 17 17 17 17 16 14 14 15 17 19 19 18 16 14 14 14 14 13 14
4 5 5 7 7 9 7 2 4 3 2 9 12 14 17 19 19 20 18 13 17 22 19 19 19 14 12 13 13 11 11 8 8 11 14 18 22 27 30 32 35 35 36 38 38 37 35 33 31 28 27 26 23 22 21 19 17 14 11 10 10 9 9 8 7 9 10 11 11 11 12 12 13 13 14 15 16 17 17 17 17 17 16 16 16 17 18 19 17 16 15 14 12 13 14 13 12
3 4 4 6 5 6 6 1 4 3 3 6 7 12 17 19 19 21 22 17 18 20 18 19 19 17 16 13 10 10 9 9 10 12 14 18 21 26 30 31 34 35 35 39 39 38 37 34 32 29 28 27 24 23 22 19 18 17 14 12 11 10 9 9 9 9 11 11 11 12 12 13 14 14 15 16 17 17 17 18 18 17 17 17 16 15 16 17 16 15 13 13 14 14 13 12 10
5 4 4 7 3 2 5 0 3 3 4 7 9 12 14 16 16 19 20 14 13 15 16 18 17 18 19 11 6 8 11 12 12 13 14 17 19 24 26 27 30 30 33 40 41 39 40 37 33 31 29 28 26 25 22 19 18 16 14 13 12 11 10 10 10 10 12 12 12 12 12 13 14 15 16 17 18 18 19 19 18 17 17 17 16 15 16 16 16 16 14 13 14 14 14 12 10
6 6 8 10 6 5 6 2 3 4 4 3 9 12 11 9 9 10 6 3 7 10 11 15 15 16 15 10 6 9 11 12 12 14 14 16 19 23 25 25 28 29 32 41 44 41 41 39 35 33 30 29 27 25 22 20 18 15 13 11 10 10 9 9 10 10 10 11 11 11 12 14 14 16 17 18 18 19 19 19 18 17 17 17 16 16 16 16 16 16 15 14 13 14 16 15 13
5 8 13 13 8 6 4 3 5 6 3 0 4 10 9 5 6 6 1 1 6 5 6 12 13 11 10 10 9 9 11 11 11 13 15 16 19 22 22 24 28 30 32 39 44 44 43 41 37 34 31 29 28 25 22 20 17 15 13 9 7 7 7 7 8 8 9 10 11 12 14 14 15 16 18 18 19 19 20 20 19 19 18 18 18 17 17 17 16 14 14 14 13 13 15 17 16
4 4 7 11 8 5 3 0 2 5 3 1 3 7 10 2 6 5 3 4 7 5 7 11 11 9 8 8 8 9 10 10 10 12 14 15 18 20 22 26 31 31 30 36 43 44 43 42 39 35 33 30 28 25 23 21 18 16 14 11 9 8 7 7 9 11 12 13 14 14 14 15 15 17 18 19 19 20 20 20 20 19 19 19 19 19 20 20 19 17 16 15 15 14 14 17 17
3 1 1 4 5 5 4 3 5 5 4 2 3 5 12 9 7 7 7 8 8 9 13 13 12 12 10 8 7 9 11 10 10 11 13 15 17 20 23 27 30 30 30 36 43 44 43 42 39 36 33 30 28 26 24 22 19 18 16 15 13 12 11 10 11 13 14 15 16 15 15 16 16 17 18 19 19 20 20 20 19 18 19 20 20 21 22 22 21 20 19 17 16 16 15 17 18
0 2 3 4 4 3 4 4 5 3 4 4 7 7 10 11 6 5 5 9 10 12 14 16 15 12 8 7 8 10 10 9 10 11 12 14 17 21 24 25 26 28 32 38 42 44 43 42 39 36 33 31 29 27 25 23 21 19 18 16 15 14 15 14 13 14 15 15 16 16 15 16 17 18 19 19 19 20 19 18 18 18 19 20 21 22 23 22 20 19 19 17 17 17 17 17 19
3 5 5 7 5 4 3 3 3 2 4 7 8 11 8 11 5 7 1 5 9 11 11 13 13 9 5 5 7 8 8 8 9 10 11 12 15 19 20 21 24 27 32 37 40 42 42 41 39 37 34 32 30 28 26 24 22 21 20 19 17 16 16 15 13 14 15 15 16 16 16 17 18 19 19 20 20 19 18 18 18 19 20 21 22 24 24 22 19 18 18 18 18 19 19 18 20
5 6 4 4 3 3 1 1 1 4 7 7 12 17 12 10 2 9 5 4 8 9 9 10 10 8 6 5 6 6 7 6 7 8 8 10 12 15 17 19 22 24 27 33 37 41 41 40 39 36 34 33 32 30 27 24 23 22 22 22 21 19 18 17 15 15 15 15 16 16 16 17 18 19 20 20 20 19 19 19 20 21 22 23 23 23 22 20 19 18 17 18 19 20 20 20 21
3 3 2 1 2 2 2 1 2 6 7 4 8 13 15 12 4 7 5 3 6 9 9 10 10 9 6 4 4 5 5 5 6 7 7 9 10 13 17 19 21 22 25 29 33 37 40 39 38 35 34 34 33 30 28 25 23 23 24 23 22 21 20 19 17 16 15 15 16 16 16 17 18 18 19 18 18 18 20 20 21 22 22 23 23 21 21 21 19 18 18 18 19 20 20 20 21
3 4 3 3 4 1 3 3 4 7 5 2 2 4 10 15 11 6 3 4 8 8 8 9 8 7 5 3 3 3 4 5 6 7 7 9 10 11 16 20 21 23 27 28 30 35 38 38 37 35 33 34 33 31 28 25 24 24 25 24 24 23 21 19 18 16 15 15 15 15 16 16 16 16 17 17 18 19 20 21 21 22 23 23 22 22 22 22 20 19 19 19 20 20 20 21 22
8 7 6 5 4 2 5 5 3 5 4 3 4 2 6 11 9 12 15 15 13 9 9 10 7 6 4 2 2 1 3 4 6 7 8 9 10 11 15 20 22 24 28 29 31 37 39 37 36 33 33 34 33 31 28 26 25 25 25 25 24 22 20 19 18 16 16 15 15 15 16 16 16 17 19 19 20 21 21 22 22 23 23 23 23 23 22 22 20 20 21 20 21 20 20 22 23
8 5 3 4 4 4 6 5 5 7 5 2 4 2 5 5 2 5 9 10 10 8 9 8 6 7 3 1 1 3 4 6 6 7 8 9 10 13 15 19 21 23 27 29 31 37 39 38 36 32 33 35 33 32 29 26 26 26 26 26 24 22 19 18 17 17 17 16 16 16 16 16 17 18 20 21 21 22 22 23 23 24 24 23 22 21 21 20 20 21 21 21 21 21 21 23 25
4 2 2 4 3 5 4 3 2 3 7 5 5 4 6 3 1 3 2 2 5 8 9 8 8 9 5 3 6 6 6 7 7 7 8 9 11 13 15 17 19 21 24 27 30 36 38 38 36 33 35 37 34 32 30 27 27 27 26 26 23 21 19 18 18 17 16 16 15 16 16 17 18 18 20 21 21 22 22 22 22 22 22 21 20 20 20 20 20 21 21 22 22 21 22 25 27
4 3 5 2 0 3 4 3 1 1 7 7 4 6 9 6 5 7 7 6 6 7 10 10 11 10 6 5 8 8 7 7 7 7 8 9 10 13 15 18 19 21 25 28 31 36 39 39 38 33 35 38 35 33 31 28 28 27 26 25 22 21 20 18 18 16 15 15 14 15 16 17 17 18 19 20 21 20 20 20 20 19 20 19 19 19 20 20 20 21 22 23 23 23 24 27 27
4 4 5 3 2 0 2 3 1 2 8 7 6 11 12 10 6 3 7 9 9 10 11 10 10 9 6 7 9 9 8 6 7 8 8 8 10 13 16 19 21 23 25 27 29 33 36 39 40 36 37 38 35 32 30 29 28 27 25 24 22 21 20 18 16 14 13 13 14 14 15 16 17 17 18 19 19 18 17 17 17 17 18 17 18 19 19 20 20 21 23 24 24 24 25 27 27
1 2 1 1 2 3 3 2 3 6 7 6 11 16 15 12 8 2 7 11 11 13 12 9 10 10 8 10 12 11 8 6 7 8 8 8 10 13 17 19 20 22 23 23 27 32 34 37 40 38 38 38 35 32 30 29 28 27 25 24 22 20 18 16 14 12 12 12 13 14 15 16 16 16 17 16 16 16 16 15 15 16 16 16 17 18 19 19 20 21 23 24 24 23 26 28 27
0 2 1 1 2 3 3 3 2 5 6 7 14 17 14 8 5 4 8 12 12 12 10 10 12 12 9 9 10 9 7 7 8 8 8 9 11 13 16 18 18 20 20 21 27 32 33 35 38 38 36 36 34 32 30 28 27 26 25 23 21 19 16 14 12 11 11 12 12 13 14 15 15 16 16 15 15 16 15 15 15 16 16 17 17 18 19 19 20 22 23 23 23 23 26 28 29
5 5 6 4 2 1 2 2 1 3 6 6 9 12 14 4 6 6 9 10 12 11 9 10 10 10 9 9 9 8 8 9 9 8 8 9 10 11 15 16 16 18 19 21 27 30 29 32 36 36 36 35 33 32 29 28 27 26 25 22 20 17 14 12 11 10 11 11 12 13 13 14 15 16 15 15 16 15 15 15 15 16 17 17 18 19 19 20 21 22 23 24 24 24 26 28 29
7 8 8 9 7 4 3 5 3 2 5 8 6 10 15 5 5 4 5 6 8 8 9 10 8 9 10 9 10 10 9 9 8 8 8 7 8 10 13 15 16 18 19 22 26 27 28 31 34 35 36 35 33 31 29 28 27 26 24 21 18 16 13 11 10 10 10 10 11 12 13 14 15 15 15 15 15 14 14 14 15 16 17 18 19 20 20 20 21 22 23 24 23 24 26 28 29
Wind_Direction
148 152 143 102 93 176 188 266 231 145 251 216 138 209 166 176 8 181 174 167 188 168 170 52 134 141 129 335 193 141 356 203 189 203 215 90 127 159 155 155 161 166 174 144 126 61 27 11 17 9 12 20 36 64 73 82 76 79 80 72 71 75 76 71 67 64 67 68 60 52 43 33 26 24 16 9 4 357 352 350 349 348 334 320 310 305 312 315 318 325 325 320 324 323 322 324 321
145 156 143 89 94 237 172 298 262 165 224 200 160 204 132 162 211 203 188 180 165 119 145 143 146 139 32 12 32 172 233 24 11 36 84 123 135 151 161 157 162 167 163 144 139 108 48 37 43 23 28 38 49 63 69 76 73 75 78 76 74 73 70 65 57 48 40 32 31 35 31 21 21 23 13 6 3 358 354 348 346 353 349 331 314 308 313 314 320 328 326 318 316 319 325 327 324
145 158 151 149 115 286 162 214 257 202 240 257 158 161 142 182 205 202 187 167 116 118 135 130 141 151 212 232 206 224 217 77 116 114 109 152 146 155 166 160 163 161 160 157 144 114 67 77 87 66 49 51 55 58 64 61 63 62 64 69 64 62 56 51 48 39 17 353 342 352 2 5 9 0 349 352 355 353 350 344 335 336 338 332 325 321 317 316 324 328 323 319 317 317 319 321 323
150 160 173 208 193 219 213 225 262 248 249 285 154 160 175 198 195 176 132 121 117 134 135 142 156 103 244 224 192 257 209 120 163 145 134 168 157 155 165 160 159 157 161 161 144 114 94 116 99 88 82 77 72 64 68 62 63 60 59 55 45 46 43 41 39 31 15 357 341 340 346 351 351 338 334 336 340 346 348 348 335 328 331 327 322 327 327 326 328 325 322 318 316 314 312 308 307
154 149 179 226 247 201 243 253 241 251 262 256 155 162 190 203 183 149 116 127 131 145 134 164 174 83 260 246 220 247 137 113 162 177 140 161 168 160 163 157 151 156 161 156 142 116 116 134 113 105 98 95 97 91 89 80 77 71 69 62 54 47 36 35 26 21 15 13 12 10 11 7 358 345 337 329 328 331 336 341 333 324 323 323 318 317 321 329 330 324 319 312 309 307 303 294 291
151 119 121 148 319 347 245 242 217 235 341 273 295 155 188 194 171 141 126 136 145 184 133 193 190 135 215 212 236 278 87 106 156 173 151 162 173 163 158 154 152 157 156 152 147 133 130 130 121 118 109 105 102 101 100 97 96 89 81 72 65 57 45 36 28 23 16 20 27 31 30 24 17 4 350 341 335 330 332 334 329 319 312 314 315 312 308 312 319 323 318 308 302 292 286 283 285
174 153 99 132 133 282 249 248 246 233 81 259 327 130 181 173 153 140 142 155 182 231 223 212 164 173 206 127 204 209 119 181 145 168 171 171 169 160 154 148 147 152 151 150 150 145 139 132 128 121 114 111 104 104 100 99 97 94 90 80 74 65 58 44 34 28 21 17 17 18 16 10 6 356 349 347 346 344 342 339 334 325 315 310 309 308 306 303 301 305 308 305 297 287 282 282 284
187 194 48 223 186 223 257 252 255 251 68 293 316 303 181 158 156 155 163 170 183 201 200 196 190 223 200 138 214 143 156 190 165 171 168 168 165 159 151 142 142 147 147 148 149 146 145 141 138 130 121 114 107 107 101 98 90 86 83 77 73 65 58 45 34 26 22 15 9 5 359 356 354 348 344 344 344 347 347 348 344 336 329 322 314 310 310 309 305 300 295 293 291 289 288 286 283
170 256 226 237 228 217 244 247 241 261 260 242 246 269 230 159 168 169 174 180 175 183 190 177 184 218 133 173 219 114 181 194 169 165 164 166 163 160 154 149 149 150 150 150 151 150 153 153 151 145 135 127 119 115 108 105 95 90 83 73 68 59 52 40 31 22 16 10 4 357 352 349 348 346 345 346 346 346 345 346 344 340 336 332 327 321 317 316 316 312 305 295 289 288 288 287 284
178 323 222 227 240 234 239 232 196 230 224 232 241 214 191 169 180 185 184 191 174 170 171 143 187 231 193 189 205 108 180 179 167 161 164 167 161 160 157 157 157 155 156 153 153 153 157 156 153 149 143 140 133 127 120 114 106 101 91 84 72 64 55 43 34 25 18 11 5 355 352 346 343 340 339 343 345 346 346 342 338 334 334 335 333 328 324 320 317 314 312 307 300 295 289 288 287
218 101 258 238 231 246 259 246 207 191 166 262 248 194 184 175 186 200 197 201 183 169 146 141 205 224 229 237 201 115 153 168 167 161 165 168 161 160 158 161 163 160 160 157 157 155 152 148 144 141 139 139 134 129 122 115 109 102 93 87 78 70 61 51 44 35 30 23 18 10 3 354 346 340 336 336 338 341 341 342 339 332 331 330 329 328 327 323 320 313 310 307 305 304 300 295 292
238 152 214 241 244 266 298 292 264 197 173 222 205 166 166 173 185 204 205 209 192 195 182 178 198 187 203 247 185 124 154 171 168 167 169 165 162 163 162 165 166 165 165 162 158 155 149 143 140 136 132 127 123 120 112 106 99 94 87 81 74 69 63 57 51 45 41 35 31 27 21 15 6 357 350 344 339 338 336 336 336 335 334 330 328 327 325 322 320 316 311 307 303 301 300 300 298
258 184 222 242 294 305 290 291 293 265 222 214 191 146 159 176 195 211 202 208 203 205 205 189 168 194 216 242 118 139 170 175 169 172 170 165 167 168 168 169 170 170 169 164 159 156 150 145 145 140 137 131 123 116 109 105 96 89 83 77 71 67 61 56 52 47 44 40 37 32 30 26 23 20 15 12 4 356 348 342 338 337 336 334 331 328 326 324 321 319 317 313 309 303 300 298 297
271 223 254 248 62 298 252 277 265 248 235 170 143 139 167 187 205 214 192 210 214 202 203 180 160 218 239 206 166 175 181 175 171 174 170 169 171 169 172 172 172 172 168 165 160 157 154 151 148 146 146 142 136 129 123 117 108 98 89 81 75 68 62 56 49 44 39 36 34 31 29 27 25 23 22 22 21 18 12 4 356 351 346 342 338 334 330 327 324 322 320 317 314 310 306 303 299
277 177 267 235 176 247 213 258 297 257 250 138 139 147 172 200 201 205 208 220 219 127 80 171 185 205 222 200 185 172 175 168 169 172 168 169 169 169 172 169 170 171 168 166 165 162 157 156 152 153 153 150 145 139 135 126 116 106 98 91 83 76 69 62 54 47 40 35 32 29 26 24 23 20 19 19 17 17 15 10 8 4 359 353 345 340 335 331 328 324 322 319 316 313 310 307 303
303 162 220 241 226 236 199 208 181 250 251 129 135 153 178 188 179 212 236 261 270 114 170 190 195 242 315 170 41 103 162 161 167 169 164 164 163 165 166 165 169 170 171 169 169 169 164 163 160 162 161 160 155 146 142 134 127 116 108 101 93 86 77 69 61 54 47 41 36 32 27 24 21 16 14 13 11 9 6 4 3 1 359 356 352 348 343 338 333 329 326 322 318 315 311 308 306
260 236 233 245 228 225 190 185 182 259 23 127 148 177 196 187 170 213 23 272 244 182 205 207 197 254 319 80 48 120 157 161 167 165 161 163 162 164 168 168 171 173 175 173 174 174 171 171 168 170 170 168 162 150 144 139 131 120 113 105 96 88 78 72 64 56 52 48 43 39 35 30 23 16 11 6 4 2 360 358 356 356 354 353 352 351 349 346 343 339 335 330 325 320 315 311 308
230 224 238 249 232 213 188 193 192 315 353 155 173 193 213 205 163 167 166 212 223 215 216 218 232 241 229 126 93 149 159 163 165 165 166 170 173 175 177 178 177 175 174 175 179 177 174 175 174 175 174 171 163 149 141 134 125 117 111 104 96 89 80 73 65 57 53 49 43 39 38 33 26 20 13 5 1 358 357 354 352 351 349 348 348 347 348 348 346 344 342 339 335 331 327 323 317
224 198 250 250 221 185 183 208 204 226 293 124 176 200 218 224 149 156 211 215 203 227 226 210 235 236 210 185 165 158 163 167 170 175 177 178 183 182 180 180 179 177 174 175 180 181 179 178 179 176 174 171 163 151 141 132 126 119 114 109 98 90 80 71 64 55 49 44 37 35 35 29 23 19 11 4 2 360 357 352 350 349 347 346 344 344 345 346 345 344 344 342 340 340 340 338 333
216 209 250 245 190 265 224 219 223 217 242 176 183 182 214 234 133 155 223 233 210 226 225 200 223 232 210 176 162 165 170 175 180 184 186 187 188 187 183 180 180 180 178 178 182 186 185 183 184 181 177 171 166 157 146 140 135 130 123 116 105 93 79 68 59 48 42 35 30 29 27 21 19 16 8 5 5 2 358 353 352 351 350 349 346 348 348 347 347 347 347 346 346 346 344 342 338
178 218 265 81 111 261 207 203 226 198 230 252 169 151 218 216 154 188 212 238 241 233 225 212 224 230 201 166 163 171 177 181 187 190 192 192 191 192 190 184 183 180 180 182 185 188 188 188 189 186 181 174 171 164 158 156 147 140 134 125 114 101 84 71 56 45 38 29 25 21 17 13 12 10 5 5 4 2 359 357 357 355 354 353 352 354 353 351 351 351 349 349 348 345 343 341 339
205 216 308 87 162 251 162 156 204 153 184 224 176 185 209 140 177 215 207 231 250 243 220 219 232 238 179 163 169 174 182 186 189 195 195 194 193 193 190 184 180 180 184 185 184 189 191 192 193 190 185 179 179 175 171 167 156 151 147 139 128 116 95 79 61 47 34 22 17 12 9 6 3 2 359 0 1 0 360 359 358 356 356 355 354 355 353 353 352 352 350 349 347 343 342 340 337
252 218 184 195 207 251 75 103 162 166 192 199 194 218 157 166 222 219 215 234 244 69 88 212 247 254 160 159 169 176 187 190 193 197 196 195 195 194 190 184 183 185 185 185 184 188 192 194 196 193 186 185 187 185 178 171 166 162 156 149 143 136 115 95 69 47 26 15 7 3 2 359 359 358 356 357 358 358 357 356 355 354 355 355 355 354 352 352 351 350 347 346 344 342 341 339 337
260 250 185 197 214 239 251 85 176 193 218 212 135 262 200 218 236 206 226 238 241 176 97 94 359 195 160 164 175 185 190 193 197 199 197 198 196 193 190 186 186 187 186 186 188 190 193 195 196 193 188 189 191 187 181 178 176 170 165 161 158 153 136 121 81 47 22 8 360 358 359 357 359 358 357 359 358 357 355 353 353 352 352 352 353 352 351 351 350 349 346 344 342 339 337 335 332
225 248 183 168 217 241 253 344 233 209 231 222 181 243 227 224 269 277 247 245 241 226 174 141 147 164 181 187 187 190 194 197 199 198 197 199 195 191 192 190 188 190 189 190 190 191 194 195 195 193 191 192 193 189 185 184 183 177 173 172 170 166 151 143 108 62 26 7 357 354 357 357 358 358 358 358 358 356 353 352 352 351 350 350 351 352 351 350 350 348 346 344 342 338 334 329 324
211 233 208 225 248 256 258 253 235 209 234 179 223 249 231 184 321 269 252 252 242 219 200 181 185 198 201 201 196 194 197 199 198 196 196 195 190 192 195 194 193 193 192 192 193 192 194 196 196 194 194 194 192 189 189 189 187 184 183 182 178 172 163 149 119 85 36 10 354 350 355 356 355 354 353 353 354 352 350 351 349 349 349 348 349 350 349 349 348 345 344 342 341 337 332 328 323
183 254 277 255 263 270 233 246 219 217 247 193 232 261 252 120 256 259 247 233 203 192 194 194 202 219 214 206 203 200 203 202 198 192 190 191 193 195 195 194 195 193 191 193 195 194 196 197 196 196 196 195 192 192 193 192 191 192 190 186 185 181 171 154 130 84 30 3 346 347 347 347 347 346 346 348 349 347 347 346 345 346 346 346 347 347 347 347 346 344 343 341 340 336 330 326 321
26 299 278 253 261 257 222 234 230 225 236 193 233 265 263 105 227 245 220 108 162 176 192 201 210 225 218 212 207 203 210 206 196 191 192 194 196 196 193 194 193 190 193 195 195 196 198 197 197 198 197 195 194 195 194 194 197 197 193 189 193 192 178 166 166 184 4 333 327 332 332 336 338 339 340 342 343 341 341 340 341 343 342 343 344 344 345 346 345 342 341 340 338 334 329 324 317
344 300 284 262 271 262 212 203 207 204 208 171 217 266 234 192 228 242 198 124 164 184 211 209 213 225 218 214 209 206 211 202 195 200 203 200 198 195 194 195 192 190 194 196 197 199 199 197 198 198 197 196 195 197 196 197 201 199 197 196 198 196 185 185 190 206 248 281 300 309 317 325 329 332 331 331 332 332 334 336 338 340 339 339 341 343 344 345 343 340 340 338 333 327 322 318 314
244 164 290 284 279 260 176 132 154 185 184 155 208 284 248 199 224 239 144 138 180 208 227 219 215 220 216 214 210 212 208 201 202 206 207 203 199 196 194 195 195 195 195 196 199 200 200 199 199 198 198 197 197 198 197 198 202 201 200 199 199 195 190 195 203 217 241 260 284 297 303 311 316 320 320 320 322 324 329 332 334 335 334 336 339 341 342 342 341 338 339 335 329 323 316 312 310
246 184 232 262 274 254 136 142 174 179 160 163 204 275 276 236 221 218 140 167 205 235 236 228 222 213 215 215 211 215 208 207 210 208 209 205 199 197 195 194 196 199 197 198 200 199 201 201 200 199 198 198 198 198 199 201 203 201 199 199 198 195 194 200 210 225 242 256 274 287 292 302 308 310 311 312 316 322 326 327 329 328 329 334 337 337 338 340 337 336 336 332 325 320 312 310 308
261 260 239 199 242 259 148 164 195 205 128 181 209 246 274 279 240 167 126 173 209 245 247 238 231 218 215 214 212 217 212 211 211 210 211 205 201 199 197 196 198 200 200 200 199 197 200 201 200 201 199 199 199 199 201 202 202 201 200 200 198 196 198 204 216 228 240 254 268 280 289 298 303 304 304 308 315 320 323 322 322 322 327 331 331 333 335 334 331 331 332 326 317 313 308 307 304
172 249 265 241 235 278 253 154 187 251 146 192 222 251 274 279 268 120 133 182 202 243 256 250 239 225 219 214 212 212 208 209 208 212 212 205 203 201 198 199 200 200 201 200 198 197 199 199 200 201 200 199 199 200 201 201 202 202 201 201 201 200 204 210 220 228 238 254 267 277 287 294 295 298 301 309 315 317 318 317 318 320 324 326 325 328 329 327 327 324 321 316 309 305 304 302 301
197 196 258 255 240 270 274 177 134 160 203 219 221 240 259 264 268 241 181 182 210 246 258 259 250 232 220 215 213 208 207 210 209 211 209 203 201 200 199 200 201 200 199 200 199 199 199 199 199 199 200 199 199 200 199 201 202 202 203 203 206 208 213 220 226 233 242 255 268 275 282 287 290 296 304 311 314 313 314 314 315 318 318 319 319 321 323 323 324 319 313 312 307 303 302 302 302
257 231 250 271 244 242 253 243 154 148 196 243 229 234 252 261 269 270 244 188 217 250 258 262 258 241 226 219 217 209 208 216 214 211 206 200 196 197 198 199 200 199 198 199 199 200 198 198 199 198 200 198 198 200 199 202 203 204 206 207 213 216 221 231 237 241 248 258 269 274 277 284 290 298 307 310 311 310 312 311 311 312 312 311 311 315 319 317 317 315 310 306 305 302 301 302 303
268 260 258 269 260 255 256 215 133 179 218 244 242 245 255 262 266 272 269 215 218 250 255 260 260 247 235 227 220 206 212 222 218 210 200 193 192 195 197 198 199 198 197 198 198 199 199 198 199 198 199 198 197 198 198 201 201 203 207 208 213 218 225 236 246 247 252 261 267 272 275 281 290 299 305 306 307 307 308 308 305 305 304 298 298 305 310 310 312 313 307 303 304 302 299 300 303
246 250 244 252 255 265 267 116 110 169 241 248 248 254 260 264 265 268 272 252 243 254 251 256 257 248 242 233 221 206 215 222 204 198 191 187 193 195 197 197 196 196 196 197 196 198 199 199 199 198 198 198 197 197 198 199 199 201 206 205 205 213 227 236 248 252 254 261 266 270 274 280 289 296 301 301 303 304 304 303 300 298 294 287 289 298 307 311 313 313 308 303 301 301 300 299 304
224 235 247 256 249 261 274 90 118 149 227 255 255 264 262 260 263 267 266 251 251 257 253 258 261 257 248 234 223 211 212 209 181 188 185 183 190 195 198 198 195 194 195 195 196 197 199 200 200 199 199 199 198 199 200 200 201 200 200 203 208 216 230 235 241 248 256 262 265 269 273 280 288 292 296 297 299 299 298 297 295 292 289 288 293 301 308 311 310 309 307 305 301 298 297 298 306
209 228 248 263 257 275 287 89 109 149 228 270 275 279 270 261 259 260 259 247 247 257 257 260 265 264 258 241 222 204 203 208 196 194 187 183 187 191 196 197 196 195 195 196 196 197 198 199 199 200 201 201 201 203 203 204 206 206 205 210 217 220 231 239 239 244 255 261 262 267 273 280 285 290 292 294 295 296 295 295 294 291 288 290 294 299 304 306 307 307 305 304 304 301 296 297 302
208 210 230 251 252 285 271 220 95 182 227 288 292 282 270 259 254 252 255 254 253 260 260 261 261 258 260 257 218 194 204 213 203 195 189 186 186 188 193 195 194 194 194 196 197 197 198 198 199 200 201 202 203 206 206 206 209 212 214 220 227 231 238 247 251 254 259 263 266 270 275 279 285 289 290 292 293 294 295 295 293 288 285 289 293 296 299 303 305 305 304 302 304 304 302 301 297
217 214 226 245 247 231 244 337 346 249 214 287 298 287 267 234 230 244 251 266 260 256 257 261 257 249 254 261 229 201 213 215 198 192 190 187 189 191 192 191 191 193 196 198 197 197 198 198 200 201 202 203 205 206 206 207 210 213 217 224 235 243 246 250 254 257 257 262 268 273 278 282 285 287 289 291 292 294 296 295 293 287 285 289 293 295 297 300 301 301 301 299 297 297 298 298 293
229 221 225 240 257 251 246 21 344 288 246 256 336 309 285 169 170 237 232 259 259 235 229 251 257 245 236 243 227 206 218 217 198 194 189 188 191 191 189 188 192 196 198 199 198 198 199 200 201 202 202 204 205 206 206 207 209 212 213 213 221 232 236 235 239 244 249 258 266 271 278 282 284 285 288 291 294 296 296 296 294 289 287 291 294 297 298 299 299 295 294 292 288 287 288 291 289
245 222 220 233 248 259 258 321 285 278 282 340 21 307 288 209 165 203 184 227 255 243 240 249 255 249 230 226 206 198 217 212 201 200 190 188 189 187 189 192 195 198 198 199 199 199 200 201 202 203 203 203 204 205 206 208 209 211 212 211 216 225 231 234 243 252 259 267 272 276 281 284 286 287 289 293 296 297 297 297 295 291 291 294 297 299 300 300 298 293 291 288 284 282 279 281 284
246 89 101 189 205 219 216 211 236 272 318 303 193 237 278 273 203 198 208 226 252 262 263 265 260 251 242 229 196 202 217 200 195 200 191 190 189 189 194 195 197 197 197 198 199 199 200 202 203 203 203 203 204 205 206 208 209 212 215 218 224 232 237 242 250 259 264 269 274 278 283 286 288 289 291 295 297 298 298 295 291 288 291 296 299 300 300 298 295 290 288 284 280 276 272 273 279
304 73 72 102 126 156 165 208 244 281 324 269 198 188 268 273 189 174 233 229 242 254 256 260 260 251 243 234 209 210 215 199 196 198 193 193 192 194 196 195 196 196 197 199 198 199 200 202 203 203 202 203 204 205 207 209 210 214 216 218 222 231 239 245 249 256 262 267 273 278 282 285 288 291 295 298 299 300 299 293 288 289 294 299 301 301 299 295 287 281 278 275 272 271 269 269 272
129 124 91 84 84 86 124 234 252 262 271 248 189 169 246 277 173 136 154 212 227 246 247 251 257 256 243 235 223 211 206 200 201 199 196 195 194 194 192 190 192 195 199 200 199 200 201 202 203 202 201 201 202 204 205 208 211 213 215 216 220 226 234 241 244 250 257 263 270 275 281 285 288 293 297 300 303 303 300 297 295 298 301 302 302 301 299 293 282 273 271 268 266 268 268 266 264
140 147 106 97 109 92 117 247 239 261 259 217 192 184 210 274 197 141 154 179 196 221 240 248 257 263 247 222 215 202 192 191 193 196 196 192 190 188 187 190 191 192 196 198 199 201 200 202 202 200 199 200 201 202 204 207 210 212 215 218 221 225 230 234 238 245 252 259 267 274 280 284 289 295 300 302 305 304 302 302 303 305 305 304 303 300 294 287 278 272 269 266 265 265 265 263 262
163 159 135 201 219 142 173 180 156 247 259 188 194 192 200 242 246 138 130 143 194 217 238 247 249 253 243 205 194 188 181 179 180 190 188 181 185 185 188 192 189 187 191 195 198 200 201 201 200 197 197 199 199 200 202 205 208 212 215 218 221 224 227 231 235 242 249 256 265 272 278 283 290 295 297 298 299 300 302 304 306 306 305 303 300 295 288 284 278 272 269 267 267 265 263 263 264
196 173 164 240 264 251 237 221 186 234 253 131 135 175 212 242 253 238 242 240 225 224 239 254 254 249 239 171 159 162 163 175 182 187 184 183 187 186 189 190 186 187 191 193 196 199 201 200 198 195 195 196 197 198 201 204 208 211 214 216 220 223 226 229 235 241 247 253 260 266 273 278 284 287 288 289 291 297 301 302 303 303 302 300 297 292 288 284 277 271 270 267 267 266 265 264 263
187 182 176 212 232 248 252 243 238 257 254 140 125 142 243 259 262 241 236 237 231 216 229 249 259 265 272 91 117 159 173 190 194 193 187 187 192 188 188 189 187 190 191 191 194 199 200 199 196 194 194 194 195 197 200 203 207 210 213 215 218 221 224 228 233 240 245 250 256 262 270 274 279 283 287 292 296 301 303 301 302 302 301 300 297 293 288 282 275 272 272 269 268 268 267 267 265
185 179 176 224 212 215 252 266 277 288 297 210 157 179 248 264 280 222 227 240 235 219 227 235 245 256 262 76 247 235 210 206 203 203 198 193 194 189 188 190 192 192 191 190 193 197 198 197 195 192 192 193 194 197 199 202 206 209 212 214 216 218 221 226 232 238 244 250 257 264 272 276 280 285 290 296 301 304 305 304 305 305 304 301 296 291 284 279 277 274 273 271 270 269 268 268 267
177 115 178 239 216 202 249 297 283 304 309 264 187 214 250 249 207 184 162 254 225 225 234 229 238 240 217 217 242 228 218 212 203 208 206 200 196 192 192 194 194 193 191 191 193 195 195 194 192 190 192 193 194 196 198 201 204 207 210 212 214 216 219 224 229 236 244 251 258 265 273 279 283 285 289 295 301 303 303 304 304 303 301 297 290 284 280 279 278 275 274 273 271 271 270 269 268
155 162 198 210 21 206 232 264 103 101 278 266 218 249 270 276 241 193 178 207 212 223 233 226 236 237 209 224 239 222 216 209 203 211 206 197 195 195 196 196 194 193 193 194 195 195 195 193 189 187 190 193 193 196 197 199 202 204 207 209 211 214 217 222 228 236 246 254 262 269 277 284 286 287 289 295 300 300 299 299 297 295 295 291 284 281 280 278 278 275 274 273 272 272 270 268 268
141 190 197 140 55 326 241 261 271 240 256 270 271 271 278 277 265 161 160 205 220 225 227 222 234 241 224 232 240 231 220 205 206 215 208 199 197 198 199 199 198 197 195 195 194 195 195 194 190 186 188 190 191 193 196 198 200 201 203 206 208 211 216 221 229 239 248 257 266 273 279 285 287 288 291 295 298 296 295 295 291 290 291 288 283 283 281 280 278 276 274 274 273 272 270 267 265
106 263 224 125 211 178 162 218 244 245 250 274 280 280 279 259 248 167 165 196 216 224 222 218 228 230 222 233 242 237 219 206 214 215 207 202 201 202 201 200 199 198 195 192 192 193 194 193 192 190 189 190 190 192 195 197 198 199 200 202 205 209 215 222 230 242 253 263 272 276 281 285 286 289 291 292 291 291 292 292 290 290 292 289 286 284 284 282 279 277 276 275 273 271 268 266 264
21 270 207 286 261 180 179 189 207 243 248 275 283 284 279 248 203 192 195 194 207 216 213 216 224 222 217 225 236 232 217 214 215 209 206 204 203 203 202 199 197 195 191 188 190 192 191 191 191 189 189 189 190 192 193 194 196 198 198 199 203 207 214 223 233 245 258 269 277 281 284 286 287 291 293 291 291 294 295 294 291 292 292 290 287 285 285 283 282 280 277 275 274 271 268 268 268
175 202 185 188 198 89 281 241 185 239 244 255 268 273 275 265 121 169 197 198 207 205 205 216 218 220 223 224 229 229 222 223 218 207 204 202 200 199 198 197 192 188 186 188 190 189 187 188 188 187 187 187 189 191 192 193 194 195 197 198 201 207 213 223 235 249 262 272 280 283 286 288 291 295 296 296 297 297 295 294 293 292 291 289 286 285 284 282 281 280 278 277 276 273 269 270 271
178 191 185 188 181 152 218 231 204 203 237 239 236 259 269 269 105 163 192 196 212 200 208 223 215 218 227 226 227 223 217 221 219 212 204 194 193 192 191 191 185 184 187 187 186 185 185 186 186 185 186 186 188 190 190 192 192 193 195 197 201 206 212 223 236 250 264 274 281 284 287 290 296 298 297 299 299 294 290 292 292 290 289 287 285 285 284 282 281 280 280 281 279 276 274 273 273